Regional Weather Roundup
Issued by NWS

Home | Current Version | Previous Version | Text Only | Print | Product List | Glossary Off
Versions: 1 2 3 4 5 6 7 8 9 10 11 12 13 14 15 16 17 18 19 20 21 22 23 24 25 26 27 28 29 30 31 32 33 34 35 36 37 38 39 40 41 42 43 44 45 46 47 48 49 50

000
ASUS45 KPSR 012000
RWRAZ

PRELIMINARY ARIZONA REGIONAL HOURLY WEATHER ROUNDUP
NATIONAL WEATHER SERVICE PHOENIX AZ
100 PM MST FRI AUG 01 2014

NOTE: FAIR INDICATES FEW OR NO CLOUDS BELOW 12,000 FEET WITH NO
SIGNIFICANT WEATHER AND/OR OBSTRUCTIONS TO VISIBILITY.

AZZ001>003-036-012100-
NORTHWEST ARIZONA

CITY           SKY/WX    TMP DP  RH WIND       PRES   REMARKS
KINGMAN        SUNNY     95  50  21 SW21G29   30.08F
$$

AZZ004>008-015-016-018-012100-
NORTH CENTRAL ARIZONA

CITY           SKY/WX    TMP DP  RH WIND       PRES   REMARKS
GRAND CANYON   MOSUNNY   80  48  32 VRB6      30.31F
WILLIAMS       MOSUNNY   77  52  41 CALM      30.38F
PRESCOTT       MOSUNNY   84  51  31 W8        30.20F
FLAGSTAFF      NOT AVBL
PAYSON         PTSUNNY   86  50  28 W10G17    30.21F
PAGE           SUNNY     91  48  22 N6        30.10F
$$

AZZ009>014-017-012100-
NORTHEAST ARIZONA

CITY           SKY/WX    TMP DP  RH WIND       PRES   REMARKS
WINSLOW        NOT AVBL
SAINT JOHNS    SUNNY     84  48  28 CALM      30.21F
WINDOW ROCK    PTSUNNY   79  50  36 SW6       30.29F
$$

AZZ023-012100-
GREATER PHOENIX AREA

CITY           SKY/WX    TMP DP  RH WIND       PRES   REMARKS
PHOENIX        PTSUNNY   93  64  38 S10       29.93F
BUCKEYE          N/A     86  70  58 SE7       29.94F
GLENDALE       PTSUNNY   93  63  36 E6        29.95F
DEER VALLEY    CLOUDY    92  60  34 VRB3      29.94F
SCOTTSDALE     PTSUNNY   95  61  32 VRB3      29.95F
MESA-FALCON    PTSUNNY   93  61  33 SW8       29.94F
MESA-GATEWAY   PTSUNNY   90  66  45 SW6       29.97F
CHANDLER       PTSUNNY   88  66  48 SW7       29.95F
$$

AZZ027-028-012100-
SOUTHWEST MARICOPA COUNTY AND PINAL COUNTY

CITY           SKY/WX    TMP DP  RH WIND       PRES   REMARKS
CASA GRANDE    CLOUDY    86  66  51 CALM      29.98F
$$

AZZ503-504-507>509-012100-
SOUTHEAST ARIZONA

CITY           SKY/WX    TMP DP  RH WIND       PRES   REMARKS
TUCSON         PTSUNNY   88  65  46 W6        30.04F
DAVIS-MONTHAN  CLOUDY    89  60  38 N1        30.02F
RYAN FIELD       N/A     88  63  42 NE5       30.04F
NOGALES        PTSUNNY   85  60  42 S10       30.12F
SIERRA VISTA   PTSUNNY   79  57  47 E7        30.19F
SAFFORD        MOSUNNY   88  57  34 VRB3      30.04F
$$

AZZ020-021-025-026-031-012100-
SOUTHWEST ARIZONA

CITY           SKY/WX    TMP DP  RH WIND       PRES   REMARKS
YUMA           CLOUDY   105  54  18 VRB7G17   29.84F HX 103
$$

CAZ031-033-041-043-047-048-061-012100-
SOUTHERN CALIFORNIA

CITY           SKY/WX    TMP DP  RH WIND       PRES   REMARKS
DOWNTOWN L.A.  SUNNY     84  65  52 SW5       29.89F
L.A. AIRPORT   MOSUNNY   75  63  66 W10       29.92F
SAN DIEGO      MOSUNNY   77  63  61 W10       29.93F
BURBANK        SUNNY     90  60  36 SE7       29.89F
ONTARIO        MOSUNNY   94  62  34 SW10      29.90F
RIVERSIDE      MOSUNNY   95  62  33 NW8       29.89F
PALM SPRINGS   MOSUNNY  102  67  31 E8G18     29.88F HX 107
EL CENTRO NAS  MOSUNNY  106  61  23 E9G17     29.80F HX 107
IMPERIAL       SUNNY    108  61  21 S13       29.80F HX 110
BLYTHE           N/A    N/A N/A N/A MISG      29.86F
$$

NVZ020-UTZ003-012100-
SOUTHERN NEVADA-UTAH

CITY           SKY/WX    TMP DP  RH WIND       PRES   REMARKS
LAS VEGAS      NOT AVBL
SALT LAKE CITY MOSUNNY   86  45  23 SW5       30.13F
$$

NMZ009-TXZ055-012100-
NEW MEXICO-WEST TEXAS

CITY           SKY/WX    TMP DP  RH WIND       PRES   REMARKS
ALBUQUERQUE    MOSUNNY   77  55  46 VRB5      30.24F
EL PASO        CLOUDY    76  62  62 N10       30.15F
$$


........................KEY........................
SKY/WX - SKY CONDITION/WEATHER
TMP    - TEMPERATURE IN FAHRENHEIT
DP     - DEW POINT IN FAHRENHEIT
RH     - RELATIVE HUMIDITY IN PERCENT
WIND   - DIRECTION AND SPEED IN MILES PER HOUR (MPH)
VRB    - VARIABLE WIND DIRECTION
PRES   - MEAN SEA LEVEL PRESSURE IN INCHES OF MERCURY
         F - FALLING PRESSURE   R - RISING PRESSURE
         S - STEADY PRESSURE
VSB    - VISIBILITY IN MILES
HX     - HEAT INDEX IN FAHRENHEIT
WCI    - WIND CHILL INDEX IN FAHRENHEIT
TC     - TEMPERATURE IN CELSIUS WHICH IS ALSO KNOWN AS
         TEMPERATURE IN CENTIGRADE
AFB    - AIR FORCE BASE
         LUKE AFB IS LUKE AIR FORCE BASE
         DAVIS-MONTHAN IS DAVIS-MONTHAN AIR FORCE BASE
NAS    - NAVAL AIR STATION
         EL CENTRO NAS IS EL CENTRO NAVAL AIR STATION
N/A    - NOT AVAILABLE


USA.gov is the U.S. government's official web portal to all federal, state and local government web resources and services.